Regional Weather Roundup
Issued by NWS

Home | Current Version | Previous Version | Graphics & Text | Print | Product List | Glossary On
Versions: 1 2 3 4 5 6 7 8 9 10 11 12 13 14 15 16 17 18 19 20 21 22 23 24 25 26 27 28 29 30 31 32 33 34 35 36 37 38 39 40 41 42 43 44 45 46 47 48 49 50
000
ASUS43 KMPX 132110
RWRMN
WEATHER ROUNDUP FOR MINNESOTA
NATIONAL WEATHER SERVICE TWIN CITIES/CHANHASSEN MN
400 PM CDT SUN JUL 13 2014


NOTE: "FAIR" INDICATES FEW OR NO CLOUDS BELOW 12,000 FEET WITH NO
SIGNIFICANT WEATHER AND/OR OBSTRUCTIONS TO VISIBILITY. N/A MEANS
CURRENT SKY AND/OR WEATHER CONDITIONS ARE NOT AVAILABLE.

MNZ060>063-068>070-132200-
   Twin Cities Metro

CITY           SKY/WX    TMP DP  RH WIND       PRES   REMARKS
TWIN CITIES    MOSUNNY   75  52  44 W14G25    29.91F
ST PAUL        MOSUNNY   74  51  44 W14       29.91F
CRYSTAL        PTSUNNY   75  51  43 NW10      29.90F
LAKEVILLE      SUNNY     73  52  46 W16       29.93S
EDEN PRAIRIE   MOSUNNY   77  51  40 NW16      29.91F
SOUTH ST PAUL  SUNNY     77  50  38 W13       29.91F
LAKE ELMO      FAIR      73  54  49 W15G28    29.92F
$$
MNZ001>005-007-008-013>017-022>024-027-028-132200-
   Northwest Minnesota

CITY           SKY/WX    TMP DP  RH WIND       PRES   REMARKS
BEMIDJI        CLOUDY    67  45  45 NW25G32   29.89R
HALLOCK        PTSUNNY   64  46  52 NW23G31   29.89S
ROSEAU         LGT RAIN  55  50  82 NW18G28   29.88S
WARROAD        DRIZZLE   57  54  88 W10G17    29.87S
THIEF RVR FALL CLOUDY    64  48  55 NW17      29.91S
CROOKSTON      CLOUDY    66  48  52 NW17G24   29.92R
FOSSTON        PTSUNNY   66  46  48 NW15G21   29.91F
DETROIT LAKES  SUNNY     70  45  40 NW14G25   29.93F
MOORHEAD       MOSUNNY   73  34  23 NW20G26   29.92F
PARK RAPIDS    MOSUNNY   70  45  40 W17       29.90F
$$
MNZ006-009>011-018-025>026-132200-
   North Central Minnesota

CITY           SKY/WX    TMP DP  RH WIND       PRES   REMARKS
BAUDETTE       CLOUDY    58  51  78 NW9       29.85F
FLAG ISLAND    LGT RAIN  55  52  88 W16       29.83S
INTL FALLS     LGT RAIN  57  51  80 NW21G26   29.83R
WASKISH        CLOUDY    64  50  59 W15G23    29.86S
BIG FORK       MOSUNNY   66  48  52 W5        29.85S
LONGVILLE      PTSUNNY   68  46  45 W12G18    29.88F
GRAND RAPIDS   CLOUDY    66  45  45 W10G17    29.86F
CRANE LAKE     PTSUNNY   64  46  52 NW14G24   29.81S
ORR            PTSUNNY   64  43  45 W12G22    29.79F
COOK           PTSUNNY   63  48  59 W8        29.83S
$$
MNZ012-019>021-037-132200-
   Northeast Minnesota

CITY           SKY/WX    TMP DP  RH WIND       PRES   REMARKS
DULUTH         PTSUNNY   70  46  42 W22       29.85S
ELY            PTSUNNY   66  45  45 W20G33    29.80S
HIBBING        CLOUDY    68  45  43 W12G22    29.84F
EVELETH        CLOUDY    63  45  51 W15       29.85S
DULUTH HARBOR  PTSUNNY   72  50  46 W14       29.84S
TWO HARBORS    MOSUNNY   70  48  46 W18       29.80F
SILVER BAY     SUNNY     68  54  60 SW9G18    29.79F
GRAND MARAIS     N/A     51  44  77 VRB6      29.78S
G MARAIS ARPRT MOSUNNY   61  46  59 W7G17     29.80F
$$
MNZ029>031-032-039>041-046>048-054>057-064-132200-
   West Central Minnesota

CITY           SKY/WX    TMP DP  RH WIND       PRES   REMARKS
FERGUS FALLS   MOSUNNY   73  37  27 NW22G30   29.92F
WHEATON        SUNNY     72  43  35 NW16G24   29.96F
MORRIS         SUNNY     73  46  38 NW16G23   29.94F
ALEXANDRIA     MOSUNNY   74  43  32 NW14G22   29.95F
ELBOW LAKE     FAIR      73  45  35 W14G23    29.93F
WADENA         MOSUNNY   70  46  43 W12G21    29.91F
GLENWOOD       SUNNY     73  45  35 W17G23    29.95S
APPLETON       SUNNY     79  45  29 NW13G21   29.95S
BENSON         SUNNY     77  46  33 N13G24    29.95S
ORTONVILLE     SUNNY     75  45  33 NW10      29.96F
MADISON        SUNNY     79  48  34 NW10G16   29.96S
WILLMAR        FAIR      77  43  29 NW14G22   29.95F
$$
MNZ033>034-036-042>043-049>051-058-059-132200-
   Central Minnesota

CITY           SKY/WX    TMP DP  RH WIND       PRES   REMARKS
ST CLOUD       MOSUNNY   77  45  32 W13G22    29.91F
SAUK CENTRE    FAIR      74  44  34 W16G26    29.94F
PAYNESVILLE    PTSUNNY   72  46  39 SW16      29.94F HAZE
AITKIN         PTSUNNY   72  46  40 W5G18     29.87F
PINE RIVER     PTSUNNY   70  46  43 NW12G20   29.93S
BRAINERD       CLOUDY    77  43  29 NW14G24   29.90F
STAPLES        MOSUNNY   70  43  37 NW12G25   29.91F
LONG PRAIRIE   FAIR      70  43  37 W13G20    29.93F
LITTLE FALLS   MOSUNNY   72  37  28 W14       29.91F
LITCHFIELD     MOSUNNY   77  50  38 NW13      29.93F
BUFFALO        PTSUNNY   75  50  41 W15G21    29.93F
MAPLE LAKE     MOSUNNY   75  53  46 W12G17    29.93S
$$
MNZ037-044-045-052-053-132200-
   East Central Minnesota

CITY           SKY/WX    TMP DP  RH WIND       PRES   REMARKS
PRINCETON      SUNNY     75  48  38 W14G28    29.91F
MORA           MOSUNNY   70  43  37 NW16G22   29.91F
CAMBRIDGE      MOSUNNY   75  52  43 W12G18    29.89F
RUSH CITY      MOSUNNY   73  48  41 W15G21    29.90F
MOOSE LAKE     CLOUDY    70  46  43 W7        29.86S
HINCKLEY       FAIR      73  48  40 W12G21    29.89S
CLOQUET        PTSUNNY   70  45  40 W14G21    29.86F
MCGREGOR       PTSUNNY   70  45  40 W13G18    29.88F
$$
MNZ071>073-080-081-089-090-097-098-132200-
   Southwest Minnesota

CITY           SKY/WX    TMP DP  RH WIND       PRES   REMARKS
MONTEVIDEO     SUNNY     77  48  36 N15       29.96S
GRANITE FALLS  SUNNY     77  51  40 W15G23    29.97S
CANBY          SUNNY     79  50  36 NW15G22   29.98F
MARSHALL       MOSUNNY   77  54  44 NW20      29.95F
REDWOOD FALLS  SUNNY     79  48  33 W17G29    29.94F
OLIVIA         MOSUNNY   77  50  38 NW13G22   29.93F
PIPESTONE      SUNNY     79  54  41 NW17G23   29.99F
WINDOM         MOSUNNY   81  54  39 W16G25    29.97F
WORTHINGTON    MOSUNNY   81  55  41 W14G23    30.00S
JACKSON        PTSUNNY   79  52  38 NW15G23   29.98F
TRACY          MOSUNNY   77  57  48 NW12G20   29.97F
SLAYTON        MOSUNNY   77  54  44 W6G21     29.99F
$$
MNZ065>067-074>077-082>085-091>093-132200-
   South Central Minnesota

CITY           SKY/WX    TMP DP  RH WIND       PRES   REMARKS
MANKATO        MOSUNNY   75  54  46 W15       29.94F
NEW ULM        MOSUNNY   77  57  50 W12G23    29.94F
ST JAMES       MOSUNNY   79  54  41 W10       29.96S
FAIRMONT       MOSUNNY   81  52  36 NW17      29.96F
GLENCOE        SUNNY     77  52  41 W12       29.92F
FARIBAULT      MOSUNNY   79  48  34 W9G18     29.95F
OWATONNA       SUNNY     75  52  43 W14G20    29.95F
WASECA         SUNNY     77  50  38 W13G20    29.97F
ALBERT LEA     SUNNY     77  54  44 NW6G20    29.96F
$$
MNZ078>079-086>088-094>096-132200-
   Southeast Minnesota

CITY           SKY/WX    TMP DP  RH WIND       PRES   REMARKS
ROCHESTER      MOSUNNY   75  53  46 W13       29.97S
RED WING       MOSUNNY   79  46  31 W14       29.91F
STANTON        MOSUNNY   76  51  41 W14       29.92F
DODGE CENTER   SUNNY     73  54  49 W14G20    29.96F
WINONA         SUNNY     77  46  33 W10G16    29.92S
AUSTIN           N/A     77  50  38 W12G18    29.96F
PRESTON        SUNNY     74  53  47 W14G24    29.97S
$$
ABBREVIATIONS USED IN REMARKS
   TC - TEMPERATURES IN CELSIUS
  WCI - WIND CHILL INDEX
   HX - HEAT INDEX
  VSB - VISIBILITY
$$



USA.gov is the U.S. government's official web portal to all federal, state and local government web resources and services.